Skip Page Navigation
NASA JPL Caltech
NASA Logo - Jet Propulsion Laboratory + View the NASA Portal
+ Center for Near-Earth Object Studies
JPL Home Earth Solar System Stars & Galaxies Technology
JPL Solar System Dynamics
BODIES ORBITS EPHEMERIDES TOOLS PHYSICAL DATA DISCOVERY FAQ SITE MAP
IMPORTANT: The SSD Announcement email list is now available. Major changes are coming in the near future, including possible hostname and/or URL changes. To be notified of such changes, subscribe to this email list.

Please visit this page for more details.


JPL Small-Body Database Browser
Search: [ help ]  
244000 (2001 SF24)
Classification: Main-belt Asteroid          SPK-ID: 2244000
Ephemeris | Orbit Diagram | Orbital Elements | Mission Design | Physical Parameters | Discovery Circumstances | Close-Approach Data ]

[ show orbit diagram ]
Orbital Elements at Epoch 2458600.5 (2019-Apr-27.0) TDB
Reference: JPL 9 (heliocentric ecliptic J2000)
 Element Value Uncertainty (1-sigma)   Units 
e .142537795268758 9.3979e-08  
a 2.253479846623315 1.0205e-08 au
q 1.932273797603049 2.0965e-07 au
i 7.063907837421792 7.7999e-06 deg
node 353.4570756799284 5.2845e-05 deg
peri 5.33516960708252 5.7218e-05 deg
M 75.76742809483666 2.0984e-05 deg
tp 2458340.448723904757
(2018-Aug-09.94872390)
7.1746e-05 TDB
period 1235.602972785444
3.38
8.3933e-06
2.298e-08
d
yr
n .2913557250420376 1.9791e-09 deg/d
Q 2.574685895643582 1.166e-08 au
  Orbit Determination Parameters
   # obs. used (total)      365  
   data-arc span      6455 days (17.67 yr)  
   first obs. used      2001-05-24  
   last obs. used      2019-01-25  
   planetary ephem.      DE431  
   SB-pert. ephem.      SB431-N16  
   condition code      0  
   norm. resid. RMS      .56623  
   source      ORB  
   producer      Otto Matic  
   solution date      2019-Jul-13 09:44:37  

Additional Information
 Earth MOID = .927598 au 
 Jupiter MOID = 2.86077 au 
 T_jup = 3.602 
[ show covariance matrix ]

Ephemeris | Orbit Diagram | Orbital Elements | Mission Design | Physical Parameters | Discovery Circumstances | Close-Approach Data ]

Physical Parameter Table
Parameter Symbol Value Units Sigma Reference Notes
absolute magnitude H 16.8   n/a MPO460069  

244000 (2001 SF24)          Discovered 2001-Sep-16 by LINEAR at Socorro
Reference: 20100726/Numbers.arcLast Updated: 2010-07-28

[ show close-approach data ]
Ephemeris | Orbit Diagram | Orbital Elements | Mission Design | Physical Parameters | Discovery Circumstances | Close-Approach Data ]
ABOUT SSD CREDITS/AWARDS PRIVACY/COPYRIGHT GLOSSARY LINKS
FirstGov 2019-Dec-14 10:41 UT
(server date/time)  
NASA Home Page
Site Manager:   Ryan S. Park
Webmaster  Alan B. Chamberlin